Dillingham, AK

12:05 PM AKDT on March 30, 2017 (GMT -0800)
Dillingham

Weather History for PADL - July, 2013

Change the Weather History Date:

Monday, July 22, 2013

  Actual Average Record
Temperature  
Mean Temperature 65 °F -  
Max Temperature 77 °F 62 °F 77 °F (2013)
Min Temperature 53 °F 50 °F 38 °F (1966)
Growing Degree Days 15 (Base 50)    
Moisture  
Dew Point 55 °F    
Average Humidity 79    
Maximum Humidity 100    
Minimum Humidity 41    
Precipitation  
Precipitation 0.00 in - - ()
Sea Level Pressure  
Sea Level Pressure 30.22 in    
Wind  
Wind Speed 3 mph (WNW)    
Max Wind Speed 12 mph    
Max Gust Speed -    
Visibility 9 miles    
Events      
Averages and records for this station are not official NWS values.
T = Trace of Precipitation, MM = Missing Value Source: NWS Daily Summary

Daily Weather History Graph

Daily Weather History Graph

Search for Another Location

Airport or City:

Trip Planner

Search our weather history database for the weather conditions in past years. The results will help you decide how hot, cold, wet, or windy it might be!

Date:

Astronomy

Jul. 22, 2013 Rise Set
Actual Time 6:00 AM AKDT 11:18 PM AKDT
Civil Twilight 4:56 AM AKDT 12:22 AM AKDT
Nautical Twilight 3:12 AM AKDT 2:08 AM AKDT
Astronomical Twilight Sun does not rise Sun does not rise
Moon 10:41 PM AKDT (7/22) 6:32 AM AKDT (7/22)
Length of Visible Light 19h 25m
Length of Day
17h 18m
Full, 100% of the Moon is Illuminated
Jul 22
Full
Jul 29
Last Quarter
Aug 6
New
Aug 14
First Quarter
Aug 20
Full

Hourly Weather History & Observations

Time (AKDT) Temp. Dew Point Humidity Pressure Visibility Wind Dir Wind Speed Gust Speed Precip Events Conditions
12:16 AM 57.2 °F 55.4 °F 94% 30.21 in 10.0 mi Calm Calm - N/A   Clear
12:36 AM 57.2 °F 55.4 °F 94% 30.22 in 10.0 mi Calm Calm - N/A   Clear
12:56 AM 55.4 °F 55.4 °F 100% 30.22 in 10.0 mi Calm Calm - N/A   Clear
1:16 AM 55.4 °F 53.6 °F 94% 30.22 in 10.0 mi Calm Calm - N/A   Clear
1:36 AM 55.4 °F 53.6 °F 94% 30.22 in 10.0 mi West 3.5 mph - N/A   Clear
1:56 AM 55.4 °F 53.6 °F 94% 30.23 in 10.0 mi Calm Calm - N/A   Clear
2:16 AM 55.4 °F 53.6 °F 94% 30.23 in 10.0 mi Calm Calm - N/A   Clear
2:36 AM 55.4 °F 53.6 °F 94% 30.23 in 10.0 mi Calm Calm - N/A   Clear
2:56 AM 53.6 °F 51.8 °F 94% 30.23 in 10.0 mi Calm Calm - N/A   Clear
3:16 AM 53.6 °F 51.8 °F 94% 30.23 in 10.0 mi West 3.5 mph - N/A   Clear
3:36 AM 55.4 °F 51.8 °F 88% 30.23 in 10.0 mi West 3.5 mph - N/A   Clear
3:56 AM 53.6 °F 51.8 °F 94% 30.23 in 10.0 mi Calm Calm - N/A   Clear
4:16 AM 53.6 °F 51.8 °F 94% 30.22 in 10.0 mi WNW 3.5 mph - N/A   Clear
4:36 AM 55.4 °F 51.8 °F 88% 30.22 in 10.0 mi NW 5.8 mph - N/A   Clear
4:56 AM 57.2 °F 51.8 °F 82% 30.22 in 10.0 mi NW 4.6 mph - N/A   Clear
5:16 AM 59.0 °F 51.8 °F 77% 30.22 in 10.0 mi NW 5.8 mph - N/A   Clear
5:36 AM 57.2 °F 51.8 °F 82% 30.22 in 10.0 mi NNW 4.6 mph - N/A   Clear
5:56 AM 57.2 °F 51.8 °F 82% 30.22 in 10.0 mi NW 5.8 mph - N/A   Mostly Cloudy
6:16 AM 59.0 °F 51.8 °F 77% 30.22 in 10.0 mi NW 4.6 mph - N/A   Mostly Cloudy
6:36 AM 57.2 °F 51.8 °F 82% 30.23 in 10.0 mi WNW 4.6 mph - N/A   Partly Cloudy
6:56 AM 55.4 °F 51.8 °F 88% 30.23 in 10.0 mi Calm Calm - N/A   Clear
7:16 AM 55.4 °F 51.8 °F 88% 30.23 in 10.0 mi WNW 3.5 mph - N/A   Scattered Clouds
7:36 AM 57.2 °F 51.8 °F 82% 30.23 in 7.0 mi Calm Calm - N/A   Mostly Cloudy
7:45 AM 55.4 °F 51.8 °F 88% 30.23 in 40.0 mi West 4.6 mph - N/A   Scattered Clouds
8:50 AM 62.6 °F 53.6 °F 72% 30.23 in 40.0 mi Variable 5.8 mph - N/A   Scattered Clouds
9:50 AM 66.2 °F 53.6 °F 64% 30.24 in 40.0 mi Variable 4.6 mph - N/A   Scattered Clouds
10:50 AM 69.8 °F 53.6 °F 56% 30.23 in 40.0 mi NNW 8.1 mph - N/A   Scattered Clouds
11:55 AM 71.6 °F 51.8 °F 50% 30.23 in 40.0 mi NW 6.9 mph - N/A   Scattered Clouds
12:45 PM 73.4 °F 51.8 °F 47% 30.22 in 40.0 mi NW 10.4 mph - N/A   Scattered Clouds
1:59 PM 73.4 °F 48.2 °F 41% 30.23 in 40.0 mi Calm Calm - N/A   Scattered Clouds
2:45 PM 71.6 °F 55.4 °F 57% 30.22 in 40.0 mi SSE 11.5 mph - N/A   Mostly Cloudy
3:45 PM 71.6 °F 55.4 °F 57% 30.22 in 40.0 mi ESE 6.9 mph - N/A   Mostly Cloudy
4:45 PM 71.6 °F 55.4 °F 57% 30.21 in 40.0 mi ESE 5.8 mph - N/A   Scattered Clouds
5:50 PM 77.0 °F 51.8 °F 41% 30.20 in 40.0 mi NE 8.1 mph - N/A   Mostly Cloudy
6:45 PM 73.4 °F 55.4 °F 53% 30.20 in 40.0 mi SE 8.1 mph - N/A   Mostly Cloudy
7:50 PM 73.4 °F 60.8 °F 65% 30.20 in 40.0 mi South 9.2 mph - N/A   Mostly Cloudy
8:50 PM 71.6 °F 62.6 °F 73% 30.19 in 40.0 mi SSE 6.9 mph - N/A   Mostly Cloudy
9:36 PM 66.2 °F 62.6 °F 88% 30.20 in 10.0 mi Calm Calm - N/A   Clear
9:56 PM 66.2 °F 60.8 °F 83% 30.20 in 10.0 mi Calm Calm - N/A   Clear
10:16 PM 64.4 °F 60.8 °F 88% 30.20 in 10.0 mi SSE 4.6 mph - N/A   Clear
10:36 PM 64.4 °F 60.8 °F 88% 30.20 in 10.0 mi Calm Calm - N/A   Clear
10:56 PM 62.6 °F 60.8 °F 94% 30.20 in 10.0 mi Calm Calm - N/A   Clear
11:16 PM 62.6 °F 60.8 °F 94% 30.21 in 10.0 mi SSE 3.5 mph - N/A   Clear
11:36 PM 62.6 °F 60.8 °F 94% 30.21 in 10.0 mi SSE 3.5 mph - N/A   Clear
11:56 PM 62.6 °F 59.0 °F 88% 30.21 in 10.0 mi Calm Calm - N/A   Clear